Regional Weather Roundup
Issued by NWS

Home | Current Version | Previous Version | Graphics & Text | Print | Product List | Glossary On
Versions: 1 2 3 4 5 6 7 8 9 10 11 12 13 14 15 16 17 18 19 20 21 22 23 24 25 26 27 28
000
ASUS45 KSLC 200310
RWRUT

UTAH REGIONAL WEATHER ROUNDUP
NATIONAL WEATHER SERVICE SALT LAKE CITY UT
800 PM MST SUN NOV 19 2017

UTZ001>011-023>025-200400-

NORTHERN UTAH

CITY           SKY/WX    TMP DP  RH WIND       PRES   REMARKS
BRIGHAM CITY   MOCLDY    32  27  81 CALM      30.12F
HILL AFB       MOCLDY    33  23  65 E12       30.09F WCI  25
LOGAN          MOCLDY    30  24  78 E3        30.10F
OGDEN          MOCLDY    33  26  75 NE5       30.09F WCI  29
SALT LAKE CITY MOCLDY    35  30  82 N6        30.09F WCI  30
TOOELE VALLEY  CLOUDY    30  28  93 S6        30.10F WCI  24
WENDOVER       CLOUDY    33  24  69 W3        30.12S
HEBER CITY       N/A     30  23  74 CALM      30.09F
WEST JORDAN    MOCLDY    33  29  88 CALM      30.10R

$$

UTZ011>015-024>027-200400-

CENTRAL/NORTHEAST UTAH

CITY           SKY/WX    TMP DP  RH WIND       PRES   REMARKS
PROVO AIRPORT  CLOUDY    32  29  88 CALM      30.11F
MOAB/CANYONLAN PTCLDY    30   6  36 CALM      30.21R
DELTA          CLOUDY    32  19  59 CALM      30.11R
PRICE          MOCLDY    29   6  38 N9        30.19F WCI  20
RICHFIELD      CLEAR     32  27  80 CALM      30.14F
ROOSEVELT      CLOUDY    23  12  63 SW3       30.18F
VERNAL         CLOUDY    26  12  55 CALM      30.16F

$$

UTZ013>016-019>022-027-200400-

SOUTHERN UTAH

CITY           SKY/WX    TMP DP  RH WIND       PRES   REMARKS
BRYCE CANYON   PTCLDY    17   7  64 SW5       30.22R WCI  10
CEDAR CITY     PTCLDY    41   9  26 SE10      30.12S
MILFORD        MOCLDY    29  17  61 NE3       30.10S
ST GEORGE      CLOUDY    48   8  19 CALM      30.11R
HANKSVILLE     MOCLDY    32   7  34 E5        30.23S WCI  27
KANAB          CLEAR     32   7  34 N5        30.22R WCI  27
BLANDING         N/A     26   5  41 NW8       30.28S WCI  17

$$

REGIONAL REPORTS     COLORADO/ARIZONA

CITY           SKY/WX    TMP DP  RH WIND       PRES   REMARKS
CRAIG, CO      CLOUDY    17  12  80 W3        30.17R
GRAND JUNCTION CLOUDY    30  14  51 N5        30.22R WCI  25
RIFLE, CO      CLOUDY    27  21  78 SW3       30.22R
MONTROSE, CO   CLOUDY    26  19  74 SE7       30.23R WCI  18
CORTEZ, CO     CLOUDY    22  12  65 NE8       30.23R WCI  12
COLORADO CITY    N/A     32   7  34 E3        30.18R
PAGE, AZ       PTCLDY    42  14  32 SW5       30.19R
GRAND CANYON   PTCLDY    24  -1  33 NE6       30.21R WCI  17
KINGMAN, AZ    PTCLDY    43   6  21 E7        30.11R
FLAGSTAFF, AZ  PTCLDY    27   2  34 CALM      30.22R

$$

REGIONAL REPORTS    NEVADA/IDAHO/WYOMING

CITY           SKY/WX    TMP DP  RH WIND       PRES   REMARKS
LAS VEGAS, NV  MOCLDY    55  11  17 SW3       30.09R
ELY, NY        CLOUDY    34   3  27 S7        30.13R WCI  28
ELKO, NV       CLOUDY    34  27  75 E3        30.08R
POCATELLO, ID  CLOUDY    32  27  81 N6        30.05F WCI  26
BURLEY, ID     MOCLDY    35  28  75 E6        30.00F WCI  30
FORT BRIDGER,    N/A     27  17  64 W6        30.11F WCI  21
EVANSTON, WY   CLOUDY    26  17  68 SW9       30.08F WCI  17
ROCK SPRINGS,  CLOUDY    26  15  63 SW12      30.09F WCI  16

$$




USA.gov is the U.S. government's official web portal to all federal, state and local government web resources and services.